Weather History for Boscobel, WI

Change the Weather History Date:

Friday, July 5, 2013

  Actual Average (KPDC) Record (KPDC)
Temperature  
Mean Temperature 72 °F -  
Max Temperature 88 °F 85 °F 98 °F (1977)
Min Temperature 55 °F 60 °F 47 °F (1972)
Cooling Degree Days 6    
Growing Degree Days 22 (Base 50)    
Moisture  
Dew Point 59 °F    
Average Humidity 79    
Maximum Humidity 100    
Minimum Humidity 37    
Precipitation  
Precipitation 0.00 in - - ()
Sea Level Pressure  
Sea Level Pressure 30.01 in    
Wind  
Wind Speed 2 mph (SSW)    
Max Wind Speed 14 mph    
Max Gust Speed 21 mph    
Visibility 5 miles    
Events Fog    
Averages and records for this station are not official NWS values.
T = Trace of Precipitation, MM = Missing Value Source: NWS Daily Summary

Daily Weather History Graph

Daily Weather History Graph

Search for Another Location

Airport:

Trip Planner

Search our weather history database for the weather conditions in past years. The results will help you decide how hot, cold, wet, or windy it might be!

Date:

Astronomy

Jul. 05, 2013 Rise Set
Actual Time 5:29 AM CDT 8:45 PM CDT
Civil Twilight 4:54 AM CDT 9:20 PM CDT
Nautical Twilight 4:08 AM CDT 10:05 PM CDT
Astronomical Twilight 3:13 AM CDT 11:00 PM CDT
Moon 3:30 AM CDT (7/5) 6:38 PM CDT (7/5)
Length of Visible Light 16h 25m
Length of Day
15h 15m
Waning Crescent, 6% of the Moon is Illuminated
Jul 5
Waning Crescent
Jul 8
New
Jul 15
First Quarter
Jul 22
Full
Jul 29
Last Quarter

Hourly Weather History & Observations

Time (CDT) Temp. Heat Index Dew Point Humidity Pressure Visibility Wind Dir Wind Speed Gust Speed Precip Events Conditions
12:53 AM 61.0 °F - 59.0 °F 93% 30.01 in 5.0 mi Calm Calm - N/A   Clear
1:35 AM 60.1 °F - 59.0 °F 96% 30.02 in 1.0 mi Calm Calm - N/A   Clear
1:42 AM 60.1 °F - 57.9 °F 93% 30.02 in 0.8 mi Calm Calm - N/A   Clear
1:53 AM 60.1 °F - 57.9 °F 93% 30.01 in 0.8 mi Calm Calm - N/A   Clear
2:11 AM 60.1 °F - 57.9 °F 93% 30.02 in 0.2 mi Calm Calm - N/A Fog Fog
2:26 AM 60.1 °F - 57.9 °F 93% 30.01 in 1.5 mi Calm Calm - N/A   Partly Cloudy
2:39 AM 57.9 °F - 57.0 °F 97% 30.01 in 4.0 mi Calm Calm - N/A   Clear
2:53 AM 59.0 °F - 57.0 °F 93% 30.01 in 2.5 mi Calm Calm - N/A   Clear
2:57 AM 59.0 °F - 57.9 °F 96% 30.01 in 1.0 mi Calm Calm - N/A   Clear
3:16 AM 59.0 °F - 57.0 °F 93% 30.01 in 0.5 mi Calm Calm - N/A Fog Fog
3:37 AM 57.9 °F - 57.0 °F 97% 30.02 in 1.2 mi Calm Calm - N/A   Clear
3:53 AM 57.0 °F - 55.0 °F 93% 30.01 in 2.5 mi Calm Calm - N/A   Clear
4:00 AM 57.9 °F - 55.9 °F 93% 30.02 in 5.0 mi Calm Calm - N/A   Clear
4:09 AM 57.0 °F - 55.9 °F 96% 30.02 in 1.5 mi Calm Calm - N/A   Clear
4:11 AM 57.0 °F - 55.9 °F 96% 30.02 in 0.8 mi Calm Calm - N/A   Clear
4:18 AM 57.0 °F - 55.9 °F 96% 30.02 in 0.2 mi Calm Calm - N/A Fog Fog
4:34 AM 57.9 °F - 55.9 °F 93% 30.02 in 1.2 mi Calm Calm - N/A   Partly Cloudy
4:42 AM 57.9 °F - 55.9 °F 93% 30.02 in 0.8 mi Calm Calm - N/A   Clear
4:53 AM 57.9 °F - 57.0 °F 97% 30.01 in 1.2 mi Calm Calm - N/A   Clear
4:59 AM 57.0 °F - 55.0 °F 93% 30.02 in 3.0 mi Calm Calm - N/A   Clear
5:21 AM 57.0 °F - 55.9 °F 96% 30.02 in 1.5 mi Calm Calm - N/A   Partly Cloudy
5:24 AM 57.0 °F - 55.9 °F 96% 30.02 in 0.8 mi Calm Calm - N/A   Mist
5:53 AM 55.9 °F - 55.0 °F 97% 30.02 in 0.5 mi Calm Calm - N/A Fog Fog
5:58 AM 57.0 °F - 55.9 °F 96% 30.02 in 2.0 mi Calm Calm - N/A   Scattered Clouds
6:04 AM 57.0 °F - 55.9 °F 96% 30.02 in 1.5 mi Calm Calm - N/A   Mostly Cloudy
6:06 AM 57.0 °F - 55.9 °F 96% 30.02 in 0.8 mi Calm Calm - N/A   Mostly Cloudy
6:49 AM 60.8 °F - 60.8 °F 100% 30.03 in 1.2 mi Calm Calm - N/A   Scattered Clouds
6:53 AM 61.0 °F - 60.1 °F 97% 30.02 in 2.0 mi Calm Calm - N/A   Scattered Clouds
7:01 AM 62.1 °F - 60.1 °F 93% 30.03 in 3.0 mi Calm Calm - N/A   Partly Cloudy
7:53 AM 69.1 °F - 63.0 °F 81% 30.03 in 9.0 mi Calm Calm - N/A   Clear
8:53 AM 75.0 °F - 64.9 °F 71% 30.04 in 10.0 mi WNW 3.5 mph - N/A   Clear
9:53 AM 79.0 °F - 63.0 °F 58% 30.04 in 10.0 mi WSW 5.8 mph - N/A   Clear
10:53 AM 82.0 °F 83.0 °F 62.1 °F 51% 30.02 in 10.0 mi South 10.4 mph - N/A   Clear
11:53 AM 84.9 °F 85.0 °F 61.0 °F 44% 30.01 in 10.0 mi WSW 10.4 mph - N/A   Clear
12:53 PM 86.0 °F 85.4 °F 59.0 °F 40% 30.00 in 10.0 mi SSW 9.2 mph - N/A   Clear
1:53 PM 87.1 °F 86.5 °F 59.0 °F 39% 29.99 in 10.0 mi SSW 11.5 mph 19.6 mph N/A   Clear
2:53 PM 88.0 °F 87.9 °F 61.0 °F 40% 29.99 in 10.0 mi SSW 11.5 mph - N/A   Scattered Clouds
3:53 PM 88.0 °F 87.1 °F 59.0 °F 37% 29.98 in 10.0 mi SSW 13.8 mph 20.7 mph N/A   Partly Cloudy
4:53 PM 87.1 °F 86.7 °F 60.1 °F 40% 29.97 in 10.0 mi South 9.2 mph - N/A   Partly Cloudy
5:53 PM 86.0 °F 85.7 °F 60.1 °F 41% 29.96 in 10.0 mi South 6.9 mph - N/A   Clear
6:53 PM 84.0 °F 84.0 °F 60.1 °F 44% 29.95 in 10.0 mi South 10.4 mph - N/A   Clear
7:53 PM 82.0 °F 82.4 °F 60.1 °F 47% 29.96 in 10.0 mi South 5.8 mph - N/A   Clear
8:53 PM 77.0 °F - 62.1 °F 60% 29.96 in 10.0 mi Variable 3.5 mph - N/A   Clear
9:53 PM 77.0 °F - 62.1 °F 60% 29.97 in 10.0 mi Variable 5.8 mph - N/A   Clear
10:53 PM 75.9 °F - 62.1 °F 62% 29.97 in 10.0 mi South 6.9 mph - N/A   Clear
11:53 PM 73.9 °F - 61.0 °F 64% 29.98 in 10.0 mi Variable 5.8 mph - N/A   Clear